Weather History for Appleton, MN

Change the Weather History Date:

Monday, April 22, 2013

  Actual Average Record
Temperature  
Mean Temperature 32 °F -  
Max Temperature 35 °F 57 °F 68 °F (1998)
Min Temperature 28 °F 33 °F 28 °F (2002)
Degree Days  
Heating Degree Days 34    
Moisture  
Dew Point 28 °F    
Average Humidity 85    
Maximum Humidity 93    
Minimum Humidity 75    
Precipitation  
Precipitation 0.05 in - - ()
Sea Level Pressure  
Sea Level Pressure 30.24 in    
Wind  
Wind Speed 11 mph (North)    
Max Wind Speed 20 mph    
Max Gust Speed 24 mph    
Visibility 8 miles    
Events Snow    
Averages and records for this station are not official NWS values.
T = Trace of Precipitation, MM = Missing Value Source: NWS Daily Summary

Daily Weather History Graph

Daily Weather History Graph

Search for Another Location

Airport:

Trip Planner

Search our weather history database for the weather conditions in past years. The results will help you decide how hot, cold, wet, or windy it might be!

Date:

Astronomy

Apr. 22, 2013 Rise Set
Actual Time 6:26 AM CDT 8:19 PM CDT
Civil Twilight 5:55 AM CDT 8:50 PM CDT
Nautical Twilight 5:16 AM CDT 9:29 PM CDT
Astronomical Twilight 4:34 AM CDT 10:11 PM CDT
Moon 5:01 PM CDT (4/22) 4:31 AM CDT (4/22)
Length of Visible Light 14h 55m
Length of Day
13h 52m
Waxing Gibbous, 88% of the Moon is Illuminated
Apr 22
Waxing Gibbous
Apr 25
Full
May 2
Last Quarter
May 9
New
May 17
First Quarter

Hourly Weather History & Observations

Time (CDT) Temp. Windchill Dew Point Humidity Pressure Visibility Wind Dir Wind Speed Gust Speed Precip Events Conditions
12:13 AM 33.8 °F 27.7 °F 30.2 °F 87% 30.18 in 10.0 mi NNW 6.9 mph - N/A   Clear
12:33 AM 33.8 °F 27.0 °F 30.2 °F 87% 30.18 in 10.0 mi NNW 8.1 mph - N/A   Clear
12:53 AM 32.0 °F 24.2 °F 28.4 °F 87% 30.18 in 10.0 mi NNW 9.2 mph - N/A   Clear
1:13 AM 32.0 °F 23.6 °F 28.4 °F 87% 30.20 in 10.0 mi NNW 10.4 mph - N/A   Scattered Clouds
1:34 AM 33.8 °F 26.4 °F 28.4 °F 81% 30.19 in 10.0 mi NNW 9.2 mph - N/A   Mostly Cloudy
1:54 AM 33.8 °F 24.8 °F 28.4 °F 81% 30.18 in 10.0 mi North 12.7 mph - N/A   Overcast
2:13 AM 33.8 °F 24.8 °F 28.4 °F 81% 30.19 in 10.0 mi North 12.7 mph - N/A   Overcast
2:33 AM 33.8 °F 23.9 °F 28.4 °F 81% 30.20 in 10.0 mi North 15.0 mph - N/A   Overcast
2:53 AM 33.8 °F 24.8 °F 28.4 °F 81% 30.21 in 10.0 mi NNW 12.7 mph - N/A   Overcast
3:13 AM 33.8 °F 26.4 °F 28.4 °F 81% 30.21 in 10.0 mi North 9.2 mph - N/A   Overcast
3:33 AM 33.8 °F 27.7 °F 28.4 °F 81% 30.21 in 10.0 mi North 6.9 mph - N/A   Overcast
3:53 AM 33.8 °F 26.4 °F 28.4 °F 81% 30.20 in 10.0 mi North 9.2 mph - N/A   Overcast
4:13 AM 30.2 °F 21.9 °F 28.4 °F 93% 30.20 in 10.0 mi North 9.2 mph - N/A   Scattered Clouds
4:33 AM 30.2 °F 21.3 °F 28.4 °F 93% 30.20 in 10.0 mi North 10.4 mph - N/A   Clear
4:53 AM 30.2 °F 23.4 °F 28.4 °F 93% 30.22 in 10.0 mi North 6.9 mph - N/A   Clear
5:13 AM 30.2 °F 23.4 °F 28.4 °F 93% 30.22 in 10.0 mi North 6.9 mph - N/A   Clear
5:34 AM 30.2 °F 26.7 °F 26.6 °F 86% 30.24 in 10.0 mi NNW 3.5 mph - N/A   Clear
5:54 AM 28.4 °F 23.3 °F 26.6 °F 93% 30.23 in 10.0 mi North 4.6 mph - N/A   Clear
6:14 AM 28.4 °F 23.3 °F 26.6 °F 93% 30.23 in 10.0 mi North 4.6 mph - N/A   Clear
6:34 AM 30.2 °F 25.4 °F 26.6 °F 86% 30.22 in 10.0 mi North 4.6 mph - N/A   Clear
6:53 AM 30.2 °F 22.6 °F 28.4 °F 93% 30.22 in 10.0 mi North 8.1 mph - N/A   Clear
7:14 AM 30.2 °F 21.9 °F 28.4 °F 93% 30.21 in 10.0 mi North 9.2 mph - N/A   Clear
7:33 AM 30.2 °F 21.3 °F 28.4 °F 93% 30.22 in 10.0 mi North 10.4 mph - N/A   Clear
7:53 AM 30.2 °F 19.8 °F 28.4 °F 93% 30.22 in 10.0 mi North 13.8 mph - N/A   Clear
8:13 AM 32.0 °F 22.5 °F 28.4 °F 87% 30.23 in 10.0 mi North 12.7 mph - N/A   Scattered Clouds
8:33 AM 33.8 °F 24.3 °F 28.4 °F 81% 30.24 in 10.0 mi North 13.8 mph - N/A   Mostly Cloudy
8:53 AM 33.8 °F 25.3 °F 28.4 °F 81% 30.24 in 10.0 mi North 11.5 mph - N/A   Overcast
9:13 AM 33.8 °F 24.8 °F 28.4 °F 81% 30.24 in 10.0 mi North 12.7 mph - N/A   Mostly Cloudy
9:33 AM 33.8 °F 24.3 °F 28.4 °F 81% 30.26 in 10.0 mi North 13.8 mph - N/A   Mostly Cloudy
9:53 AM 33.8 °F 24.8 °F 28.4 °F 81% 30.26 in 10.0 mi North 12.7 mph - N/A   Overcast
10:13 AM 33.8 °F 24.8 °F 28.4 °F 81% 30.26 in 10.0 mi North 12.7 mph - N/A   Mostly Cloudy
10:33 AM 33.8 °F 24.3 °F 28.4 °F 81% 30.25 in 10.0 mi North 13.8 mph - N/A   Scattered Clouds
10:53 AM 33.8 °F 24.8 °F 28.4 °F 81% 30.26 in 10.0 mi North 12.7 mph - N/A   Scattered Clouds
11:13 AM 33.8 °F 24.3 °F 28.4 °F 81% 30.26 in 10.0 mi North 13.8 mph 17.3 mph N/A   Scattered Clouds
11:34 AM 33.8 °F 24.8 °F 28.4 °F 81% 30.26 in 10.0 mi NNE 12.7 mph - N/A   Scattered Clouds
11:53 AM 35.6 °F 27.1 °F 28.4 °F 75% 30.25 in 10.0 mi NNE 12.7 mph - N/A   Clear
12:13 PM 35.6 °F 26.6 °F 28.4 °F 75% 30.25 in 10.0 mi North 13.8 mph - N/A   Scattered Clouds
12:33 PM 35.6 °F 26.6 °F 28.4 °F 75% 30.25 in 10.0 mi North 13.8 mph - N/A   Scattered Clouds
12:53 PM 35.6 °F 27.5 °F 30.2 °F 81% 30.25 in 4.0 mi North 11.5 mph - N/A Snow Light Snow
1:14 PM 33.8 °F 24.3 °F 30.2 °F 87% 30.24 in 5.0 mi North 13.8 mph - N/A Snow Light Snow
1:34 PM 33.8 °F 24.8 °F 28.4 °F 81% 30.25 in 7.0 mi North 12.7 mph - N/A Snow Light Snow
1:53 PM 33.8 °F 24.3 °F 30.2 °F 87% 30.25 in 1.0 mi North 13.8 mph - N/A Snow Light Snow
2:13 PM 32.0 °F 20.8 °F 30.2 °F 93% 30.25 in 0.2 mi NNE 17.3 mph - N/A Snow Snow
2:34 PM 32.0 °F 23.0 °F 30.2 °F 93% 30.24 in 0.2 mi NNE 11.5 mph - N/A Snow Snow
2:53 PM 33.8 °F 24.8 °F 30.2 °F 87% 30.24 in 0.2 mi NNE 12.7 mph - N/A Snow Snow
3:14 PM 33.8 °F 25.8 °F 30.2 °F 87% 30.24 in 0.8 mi North 10.4 mph - 0.01 in Snow Light Snow
3:33 PM 33.8 °F 24.8 °F 30.2 °F 87% 30.25 in 0.8 mi North 12.7 mph - 0.02 in Snow Light Snow
3:53 PM 32.0 °F 22.5 °F 30.2 °F 93% 30.24 in 0.5 mi North 12.7 mph - 0.03 in Snow Light Snow
4:14 PM 33.8 °F 24.8 °F 30.2 °F 87% 30.25 in 1.0 mi North 12.7 mph - 0.01 in Snow Light Snow
4:33 PM 33.8 °F 24.3 °F 30.2 °F 87% 30.24 in 1.2 mi North 13.8 mph - 0.01 in Snow Light Snow
4:54 PM 33.8 °F 24.8 °F 30.2 °F 87% 30.24 in 1.2 mi NNW 12.7 mph - 0.02 in Snow Light Snow
5:13 PM 33.8 °F 23.5 °F 30.2 °F 87% 30.24 in 1.2 mi North 16.1 mph - N/A Snow Light Snow
5:34 PM 33.8 °F 23.5 °F 30.2 °F 87% 30.23 in 1.0 mi North 16.1 mph - N/A Snow Light Snow
5:53 PM 33.8 °F 22.8 °F 30.2 °F 87% 30.23 in 1.5 mi North 18.4 mph - N/A Snow Light Snow
6:14 PM 33.8 °F 23.5 °F 28.4 °F 81% 30.24 in 3.0 mi North 16.1 mph 23.0 mph N/A Snow Light Snow
6:33 PM 33.8 °F 22.8 °F 28.4 °F 81% 30.24 in 7.0 mi North 18.4 mph 24.2 mph N/A   Overcast
6:54 PM 33.8 °F 22.8 °F 28.4 °F 81% 30.25 in 7.0 mi NNW 18.4 mph - N/A   Scattered Clouds
7:13 PM 33.8 °F 22.5 °F 26.6 °F 75% 30.26 in 10.0 mi North 19.6 mph - N/A   Clear
7:33 PM 32.0 °F 21.2 °F 26.6 °F 80% 30.26 in 10.0 mi North 16.1 mph - N/A   Mostly Cloudy
7:53 PM 32.0 °F 21.2 °F 26.6 °F 80% 30.26 in 10.0 mi North 16.1 mph - N/A   Overcast
8:13 PM 30.2 °F 18.5 °F 26.6 °F 86% 30.27 in 10.0 mi NNW 17.3 mph 24.2 mph N/A   Overcast
8:34 PM 30.2 °F 18.1 °F 26.6 °F 86% 30.27 in 10.0 mi NNW 18.4 mph 24.2 mph N/A   Overcast
8:54 PM 30.2 °F 18.9 °F 26.6 °F 86% 30.27 in 10.0 mi NNW 16.1 mph - N/A   Overcast
9:13 PM 30.2 °F 18.9 °F 26.6 °F 86% 30.28 in 10.0 mi NNW 16.1 mph - N/A   Overcast
9:34 PM 30.2 °F 17.8 °F 26.6 °F 86% 30.28 in 10.0 mi NNW 19.6 mph - N/A   Overcast
9:53 PM 30.2 °F 18.9 °F 24.8 °F 80% 30.28 in 10.0 mi NNW 16.1 mph - N/A   Overcast
10:14 PM 28.4 °F 15.8 °F 24.8 °F 86% 30.28 in 10.0 mi NNW 18.4 mph - N/A   Scattered Clouds
10:33 PM 28.4 °F 16.2 °F 24.8 °F 86% 30.28 in 10.0 mi NNW 17.3 mph - N/A   Clear
10:53 PM 28.4 °F 16.2 °F 24.8 °F 86% 30.27 in 10.0 mi NNW 17.3 mph - N/A   Mostly Cloudy
11:14 PM 30.2 °F 17.8 °F 24.8 °F 80% 30.29 in 10.0 mi NNW 19.6 mph - N/A   Mostly Cloudy
11:33 PM 30.2 °F 18.5 °F 24.8 °F 80% 30.28 in 10.0 mi NNW 17.3 mph 23.0 mph N/A   Mostly Cloudy
11:53 PM 30.2 °F 18.5 °F 24.8 °F 80% 30.28 in 10.0 mi NNW 17.3 mph - N/A   Overcast